[[[{"header":{"parameterUnit":"kt","parameterCategory":2,"dx":1,"dy":1,"la1":30.253999710083008,"la2":30.299108505249023,"lo1":-89.0895004272461,"lo2":-89.04439544677734,"nx":28,"ny":28,"refTime":"2022-10-07T21:00:00:Z","depth":0,"parameterNumber":1,"parameterNumberName":"U-component_of_WINDS"},"data":[-4.7294,-4.7306,-4.7261,-4.7253,-4.7211,-4.7197,-4.7178,-4.7147,-4.7111,-4.7088,-4.7067,-4.702,-4.6965,-4.6926,-4.6899,-4.6879,-4.6871,-4.6909,-4.6879,-4.6751,-4.6731,-4.6711,-4.6706,-4.6908,-4.6908,-4.7017,-4.7019,-4.7019,-4.7206,-4.7165,-4.7148,-4.71,-4.7084,-4.702,-4.6976,-4.6967,-4.6956,-4.6911,-4.6887,-4.6862,-4.6836,-4.6765,-4.6732,-4.6735,-4.6702,-4.6729,-4.6729,-4.6721,-4.6583,-4.6578,-4.6756,-4.6756,-4.6756,-4.6756,-4.6756,-4.6756,-4.7033,-4.7043,-4.6987,-4.6967,-4.693,-4.6898,-4.6898,-4.6841,-4.6822,-4.6783,-4.673,-4.6716,-4.6661,-4.6596,-4.6563,-4.6549,-4.6511,-4.6525,-4.6529,-4.6534,-4.6547,-4.6398,-4.6541,-4.654,-4.654,-4.6539,-4.6539,0,-4.6893,-4.6854,-4.6834,-4.6801,-4.6783,-4.6752,-4.6715,-4.6714,-4.6613,-4.6602,-4.6581,-4.656,-4.6519,-4.6494,-4.6451,-4.6412,-4.6343,-4.633,-4.634,-4.6367,-4.6396,-4.6382,-4.616,-4.6326,-4.6324,-4.6323,-4.6322,-4.6321,-4.6717,-4.6732,-4.665,-4.6642,-4.6611,-4.6599,-4.6582,-4.6492,-4.6477,-4.6418,-4.6429,-4.6402,-4.6375,-4.6348,-4.6279,-4.6247,-4.6214,-4.6283,-4.6208,-4.6233,-4.6216,-4.6216,-4.6217,-4.6299,-4.6302,-4.6304,-4.6306,0,-4.6622,-4.6546,-4.6554,-4.6471,-4.645,-4.6471,-4.6399,-4.6403,-4.6346,-4.6343,-4.6337,-4.6249,-4.6228,-4.6147,-4.6107,-4.6066,-4.6097,-4.6064,-4.6115,-4.6105,-4.6159,-4.6156,-4.6347,-4.6367,-4.6156,-4.6158,-4.616,0,-4.6442,-4.6465,-4.635,-4.6359,-4.6381,-4.6289,-4.6314,-4.6267,-4.6218,-4.6215,-4.6124,-4.6123,-4.6019,-4.6006,-4.5944,-4.5954,-4.5946,-4.5915,-4.5899,-4.5924,-4.5929,-4.5915,-4.5906,-4.586,-4.5859,-4.5858,-4.5857,0,-4.6302,-4.6266,-4.628,-4.626,-4.6173,-4.6181,-4.6145,-4.6088,-4.6072,-4.6037,-4.6025,-4.5991,-4.5973,-4.5948,-4.5869,-4.5822,-4.588,-4.5798,-4.5848,-4.585,-4.5866,-4.5866,-4.6055,-4.5856,-4.5856,-4.5856,-4.5855,0,-4.6145,-4.6113,-4.6144,-4.6069,-4.6063,-4.6072,-4.6033,-4.6021,-4.5968,-4.593,-4.5901,-4.5831,-4.5833,-4.5758,-4.5759,-4.572,-4.5707,-4.5677,-4.5679,-4.5675,-4.5595,-4.5713,-4.59,-4.5917,-4.5671,-4.5669,-4.5667,0,-4.6007,-4.6017,-4.5938,-4.5969,-4.5963,-4.5861,-4.5868,-4.5824,-4.5774,-4.576,-4.5703,-4.5688,-4.5615,-4.5599,-4.561,-4.5551,-4.5601,-4.5541,-4.5522,-4.5522,-4.5541,-4.5711,-4.576,-4.5868,-4.5647,-4.5649,-4.565,0,-4.589,-4.5784,-4.5795,-4.5767,-4.5694,-4.5688,-4.5696,-4.5661,-4.5657,-4.5616,-4.5621,-4.5596,-4.554,-4.5515,-4.5453,-4.5469,-4.5564,-4.5407,-4.5404,-4.5439,-4.5629,-4.5675,-4.5694,-4.5519,-4.5521,-4.5523,-4.5634,0,-4.5671,-4.5666,-4.5692,-4.5635,-4.5617,-4.5631,-4.5545,-4.5538,-4.548,-4.5427,-4.5431,-4.5372,-4.5336,-4.5334,-4.5278,-4.534,-4.5317,-4.5258,-4.518,-4.5292,-4.5327,-4.534,-4.5136,-4.5133,-4.5131,-4.5129,0,0,-4.5558,-4.5549,-4.5462,-4.5467,-4.5446,-4.534,-4.5363,-4.533,-4.5267,-4.5255,-4.5211,-4.5169,-4.5124,-4.5138,-4.5166,-4.5151,-4.5154,-4.5118,-4.5239,-4.5252,-4.5263,-4.5302,-4.5318,-4.5125,-4.5124,-4.5123,-4.5122,0,-4.5461,-4.5418,-4.5442,-4.5404,-4.5346,-4.5287,-4.5293,-4.5216,-4.5182,-4.5186,-4.5098,-4.5089,-4.5058,-4.5022,-4.4999,-4.5114,-4.5047,-4.5109,-4.52,-4.5218,-4.5234,-4.5248,-4.5289,-4.5305,-4.5116,-4.5117,-4.5117,0,-4.5331,-4.5275,-4.5277,-4.5225,-4.5186,-4.5181,-4.5078,-4.5078,-4.5073,-4.4955,-4.4961,-4.4916,-4.4859,-4.4884,-4.4892,-4.4851,-4.4956,-4.4907,-4.4919,-4.4919,-4.4932,-4.4951,-4.4968,-4.4743,-4.4742,-4.4741,0,0,-4.5259,-4.5253,-4.5163,-4.5198,-4.5179,-4.5093,-4.5081,-4.5023,-4.4975,-4.4956,-4.4898,-4.4853,-4.4833,-4.4823,-4.48,-4.4839,-4.482,-4.4865,-4.4882,-4.4897,-4.4904,-4.4922,-4.494,-4.4738,-4.4738,-4.4738,0,0,-4.5223,-4.5122,-4.5073,-4.5102,-4.506,-4.4973,-4.4997,-4.4935,-4.4906,-4.4895,-4.4795,-4.4779,-4.48,-4.476,-4.4722,-4.477,-4.4695,-4.4702,-4.4796,-4.4817,-4.4834,-4.4844,-4.4608,0,0,0,0,0,-4.508,-4.5134,-4.5091,-4.5083,-4.5017,-4.4998,-4.4988,-4.4908,-4.4857,-4.4878,-4.4819,-4.4748,-4.4719,-4.4684,-4.4677,-4.4719,-4.4692,-4.47,-4.4708,-4.4838,-4.4861,-4.488,0,0,0,0,0,0,-4.5076,-4.5067,-4.5089,-4.5007,-4.4991,-4.4995,-4.489,-4.4869,-4.4852,-4.4839,-4.4762,-4.4745,-4.4676,-4.4681,-4.4677,-4.4719,-4.461,-4.4695,-4.4702,-4.4709,-4.4846,-4.4865,-4.4881,0,0,0,0,0,-4.5073,-4.5065,-4.498,-4.5005,-4.4991,-4.4898,-4.4887,-4.4869,-4.4854,-4.4763,-4.4745,-4.4795,-4.4679,-4.4669,-4.4678,-4.4723,-4.4613,-4.4611,-4.47,-4.4705,-4.471,-4.4855,0,0,0,0,0,0,-4.507,-4.5048,-4.4975,-4.4968,-4.4979,-4.4896,-4.488,-4.487,-4.4778,-4.4761,-4.4792,-4.4783,-4.4682,-4.4674,-4.4667,-4.4729,-4.4615,-4.4613,-4.4612,-4.4704,-4.4708,-4.4712,0,0,0,0,0,0,-4.5051,-4.5043,-4.4972,-4.4943,-4.4931,-4.4894,-4.4881,-4.4876,-4.4778,-4.4812,-4.4801,-4.4789,-4.4692,-4.4678,-4.4672,-4.4668,-4.4617,-4.4615,-4.4614,-4.4614,-4.4708,-4.4711,0,0,0,0,0,0,-4.5046,-4.5039,-4.4944,-4.4936,-4.4925,-4.4838,-4.4888,-4.4825,-4.4755,-4.4817,-4.4746,-4.4742,-4.4698,-4.469,-4.4676,-4.4675,-4.4669,-4.4617,-4.4616,-4.4615,-4.4614,0,0,0,0,0,0,0,-4.5042,-4.5112,-4.5018,-4.493,-4.492,-4.4902,-4.49,-4.4898,-4.4754,-4.4751,-4.4747,-4.4744,-4.4625,-4.4624,-4.4622,-4.468,0,0,-4.4617,-4.4616,0,0,0,0,0,0,0,0,-4.5114,-4.5113,-4.5018,-4.5017,-4.5015,-4.4901,-4.49,-4.4898,-4.4754,-4.4751,-4.4748,-4.4745,-4.4625,-4.4623,-4.4622,0,0,0,0,0,0,0,0,0,0,0,0,0,0,0,-4.5018,-4.5017,0,-4.4901,-4.49,-4.4899,-4.4753,-4.4751,-4.4749,-4.4747,-4.4624,-4.4623,-4.4622,0,0,0,0,0,0,0,0,0,0,0,0,0,0,0,0,0,0,0,0,0,0,0,0,0,0,0,0,0,0,0,0,0,0,0,0,0,0,0,0,0,0,0,0,0,0,0,0,0,0,0,0,0,0,0,0,0,0,0,0,0,0,0,0,0,0,0,0,0]}],[{"header":{"parameterUnit":"kt","parameterCategory":2,"dx":1,"dy":1,"la1":30.253999710083008,"la2":30.299108505249023,"lo1":-89.0895004272461,"lo2":-89.04439544677734,"nx":28,"ny":28,"refTime":"2022-10-07T21:00:00:Z","depth":0,"parameterNumber":2,"parameterNumberName":"V-component_of_WINDS"},"data":[-9.3022,-9.3136,-9.3143,-9.3275,-9.3302,-9.3393,-9.3427,-9.3471,-9.3506,-9.3612,-9.3673,-9.3688,-9.3723,-9.3795,-9.3859,-9.3863,-9.3891,-9.3928,-9.3927,-9.3758,-9.3735,-9.3713,-9.3689,-9.3934,-9.3934,-9.4102,-9.4104,-9.4105,-9.29,-9.293,-9.3002,-9.3076,-9.3136,-9.3105,-9.3159,-9.3212,-9.3292,-9.3335,-9.3396,-9.3488,-9.3559,-9.3581,-9.365,-9.3701,-9.3689,-9.3719,-9.3717,-9.3723,-9.3542,-9.3516,-9.3728,-9.3728,-9.3728,-9.3728,-9.3728,-9.3728,-9.2682,-9.275,-9.2799,-9.2876,-9.2914,-9.2962,-9.3026,-9.3044,-9.3111,-9.3187,-9.3177,-9.3266,-9.3308,-9.3392,-9.3419,-9.3488,-9.3454,-9.3488,-9.3497,-9.3506,-9.3517,-9.3279,-9.3498,-9.3498,-9.3497,-9.3497,-9.3496,0,-9.2525,-9.2526,-9.2594,-9.2665,-9.2721,-9.2775,-9.2825,-9.2864,-9.2863,-9.2918,-9.2998,-9.3044,-9.3133,-9.3207,-9.3271,-9.3292,-9.3263,-9.3258,-9.3282,-9.3291,-9.3291,-9.3295,-9.3003,-9.3252,-9.325,-9.3249,-9.3247,-9.3247,-9.2307,-9.2384,-9.2436,-9.2483,-9.2512,-9.2587,-9.2632,-9.2625,-9.2673,-9.2731,-9.2789,-9.2862,-9.2921,-9.3044,-9.3059,-9.3125,-9.3111,-9.3207,-9.3121,-9.3126,-9.3116,-9.3113,-9.3121,-9.3224,-9.3227,-9.3229,-9.3231,0,-9.2185,-9.2193,-9.2313,-9.2356,-9.2369,-9.2449,-9.2483,-9.2548,-9.2556,-9.2646,-9.2667,-9.2679,-9.2755,-9.2755,-9.284,-9.2837,-9.2967,-9.295,-9.2954,-9.2951,-9.3039,-9.3032,-9.3318,-9.3355,-9.3098,-9.3101,-9.3103,0,-9.2003,-9.2103,-9.211,-9.2179,-9.229,-9.2281,-9.239,-9.2408,-9.2444,-9.2515,-9.2482,-9.2548,-9.2536,-9.2602,-9.2598,-9.2703,-9.2718,-9.2723,-9.2721,-9.2728,-9.2728,-9.2753,-9.2742,-9.271,-9.2709,-9.2708,-9.2706,0,-9.1812,-9.1931,-9.2044,-9.2072,-9.2126,-9.2178,-9.2202,-9.2242,-9.2285,-9.234,-9.2368,-9.2431,-9.2466,-9.2515,-9.251,-9.2452,-9.2638,-9.2556,-9.2643,-9.2643,-9.2685,-9.2683,-9.2935,-9.2705,-9.2704,-9.2704,-9.2703,0,-9.1667,-9.1727,-9.1887,-9.1932,-9.1963,-9.2035,-9.2099,-9.2161,-9.2205,-9.2208,-9.225,-9.2228,-9.2318,-9.2238,-9.2363,-9.229,-9.2326,-9.2338,-9.2344,-9.2354,-9.2265,-9.241,-9.2648,-9.2674,-9.2361,-9.2358,-9.2355,0,-9.1448,-9.1611,-9.1605,-9.1756,-9.1832,-9.1792,-9.1871,-9.1911,-9.1922,-9.1985,-9.1995,-9.2067,-9.2007,-9.2029,-9.209,-9.2103,-9.2198,-9.209,-9.2181,-9.2184,-9.2174,-9.2392,-9.243,-9.2596,-9.2318,-9.2322,-9.2325,0,-9.1279,-9.1345,-9.1372,-9.1405,-9.1457,-9.1519,-9.1609,-9.1679,-9.1723,-9.1769,-9.1845,-9.1943,-9.1903,-9.1939,-9.1927,-9.1991,-9.2133,-9.1938,-9.1939,-9.1975,-9.2299,-9.2334,-9.2362,-9.211,-9.2115,-9.2118,-9.2296,0,-9.1064,-9.1145,-9.1218,-9.1289,-9.1336,-9.1429,-9.1432,-9.148,-9.1465,-9.1474,-9.1583,-9.1613,-9.1681,-9.1711,-9.1695,-9.1841,-9.1817,-9.1772,-9.1695,-9.1838,-9.1896,-9.192,-9.1609,-9.1606,-9.1604,-9.1603,0,0,-9.0853,-9.097,-9.0959,-9.1048,-9.1088,-9.1044,-9.1144,-9.1176,-9.1242,-9.127,-9.1227,-9.1371,-9.1396,-9.1528,-9.1572,-9.1599,-9.1625,-9.1575,-9.1769,-9.1788,-9.1805,-9.1868,-9.1893,-9.1599,-9.1598,-9.1598,-9.1597,0,-9.0775,-9.0807,-9.0906,-9.094,-9.099,-9.0995,-9.1019,-9.106,-9.107,-9.1176,-9.1137,-9.1201,-9.1314,-9.1348,-9.138,-9.1559,-9.1525,-9.1578,-9.1677,-9.175,-9.1771,-9.179,-9.1856,-9.1879,-9.1592,-9.1593,-9.1593,0,-9.0611,-9.0643,-9.0691,-9.0779,-9.081,-9.0887,-9.0808,-9.0891,-9.0948,-9.0892,-9.0998,-9.1014,-9.1058,-9.1181,-9.1237,-9.1199,-9.1434,-9.1358,-9.137,-9.1376,-9.1447,-9.1473,-9.1495,-9.1197,-9.1196,-9.1195,0,0,-9.0544,-9.0619,-9.0649,-9.0762,-9.0785,-9.0793,-9.0833,-9.0822,-9.0864,-9.0881,-9.0901,-9.0941,-9.1007,-9.105,-9.1111,-9.1247,-9.1255,-9.1309,-9.1328,-9.1343,-9.1358,-9.1433,-9.1458,-9.119,-9.119,-9.1189,0,0,-9.051,-9.0552,-9.053,-9.0661,-9.0704,-9.0739,-9.0807,-9.078,-9.0836,-9.0825,-9.0808,-9.0817,-9.0933,-9.0949,-9.0881,-9.1084,-9.1008,-9.1024,-9.1069,-9.1093,-9.1111,-9.1106,-9.0802,0,0,0,0,0,-9.0432,-9.0547,-9.0527,-9.0549,-9.0658,-9.0751,-9.0764,-9.0755,-9.0702,-9.0757,-9.0769,-9.0729,-9.0909,-9.0849,-9.0869,-9.0946,-9.1124,-9.1135,-9.1146,-9.1237,-9.1261,-9.1282,0,0,0,0,0,0,-9.0441,-9.0469,-9.0523,-9.0564,-9.0589,-9.0747,-9.0656,-9.0656,-9.0696,-9.0687,-9.0728,-9.073,-9.0722,-9.0837,-9.0856,-9.0929,-9.0796,-9.1128,-9.1138,-9.1147,-9.1245,-9.1265,-9.1283,0,0,0,0,0,-9.0448,-9.047,-9.0648,-9.0562,-9.0584,-9.0598,-9.0651,-9.0651,-9.0681,-9.0701,-9.0702,-9.067,-9.0724,-9.0739,-9.0848,-9.0921,-9.0783,-9.079,-9.1135,-9.1142,-9.1149,-9.1255,0,0,0,0,0,0,-9.0453,-9.0469,-9.0652,-9.0658,-9.0519,-9.0589,-9.0599,-9.0647,-9.0691,-9.0694,-9.0641,-9.0634,-9.0727,-9.0738,-9.075,-9.0919,-9.0772,-9.0779,-9.0784,-9.1141,-9.1147,-9.1152,0,0,0,0,0,0,-9.0457,-9.0475,-9.0655,-9.06,-9.06,-9.058,-9.059,-9.068,-9.0692,-9.0629,-9.0625,-9.0637,-9.0708,-9.0738,-9.0747,-9.0888,-9.0763,-9.077,-9.0775,-9.0778,-9.1146,-9.115,0,0,0,0,0,0,-9.0464,-9.0479,-9.0598,-9.0598,-9.0598,-9.0663,-9.0659,-9.077,-9.0649,-9.0628,-9.0637,-9.0632,-9.0709,-9.0718,-9.0746,-9.0883,-9.0886,-9.0764,-9.0768,-9.0772,-9.0774,0,0,0,0,0,0,0,-9.047,-9.0373,-9.0617,-9.0597,-9.0596,-9.0713,-9.0714,-9.0716,-9.0648,-9.0643,-9.0639,-9.0634,-9.0724,-9.0731,-9.0739,-9.0878,0,0,-9.0763,-9.0766,0,0,0,0,0,0,0,0,-9.0367,-9.0372,-9.0617,-9.0618,-9.0619,-9.0713,-9.0714,-9.0716,-9.0647,-9.0643,-9.064,-9.0636,-9.0726,-9.0732,-9.0738,0,0,0,0,0,0,0,0,0,0,0,0,0,0,0,-9.0617,-9.0618,0,-9.0713,-9.0714,-9.0715,-9.0646,-9.0643,-9.064,-9.0638,-9.0728,-9.0733,-9.0738,0,0,0,0,0,0,0,0,0,0,0,0,0,0,0,0,0,0,0,0,0,0,0,0,0,0,0,0,0,0,0,0,0,0,0,0,0,0,0,0,0,0,0,0,0,0,0,0,0,0,0,0,0,0,0,0,0,0,0,0,0,0,0,0,0,0,0,0,0]}]]]